"Pseudo-MPEC" for C1FW9G5

Created 2026 Aug 26 0:35:06 UT using Find_Orb

Click here for an explanation of pseudo-MPECs

 
 Astrometry: 
     C1FW9G5*1C2026 08 23.29002322 19 00.480-01 44 12.88   ~8OFo 22.12GVNEOCPV00
     C1FW9G5 1C2026 08 23.29712022 19 01.434-01 44 27.17   ~8OFo       VNEOCPV00
     C1FW9G5 1C2026 08 23.30432422 19 02.392-01 44 41.21   ~8OFo 22.82GVNEOCPV00
     C1FW9G5 1C2026 08 23.31152422 19 03.378-01 44 55.64   ~8OFo 22.56GVNEOCPV00
     C1FW9G5 0C2026 08 23.37924022 19 12.510-01 47 10.60   ~8OFo 22.1 RVNEOCP291
     C1FW9G5 0C2026 08 23.39420022 19 14.500-01 47 40.30   ~8OFo       VNEOCP291

Station data:
(291) LPL/Spacewatch II  (N31.961669 W111.599905)  US/Arizona.  Observers J.
   V. Scotti, R. S. McMillan. 1.8-m f/2.7 reflector + CCD.
(V00) Kitt Peak-Bok  (N31.963125 W111.600190)  US/Arizona. Measurers T.
   Beuden, V. F. Carvajal, D. Fay, J. B. Fazekas, D. C. Fuls, A. R. Gibbs, A.
   D. Grauer, H. Gröller, J. K. Hogan, R. A. Kowalski, S. M. Larson, G. J.
   Leonard, D. Rankin, R. L. Seaman, F. C. Shelly, K. W. Wierzchoś. 2.25-m
   reflector + 4x4K mosaic CCD.

Orbital elements:  C1FW9G5
   Perihelion 2026 Aug 3.330280 +/- 40.4 TT =  7:55:36.2 (JD 2461255.830280)
Epoch 2026 Aug 23.0 TT = JDT 2461275.5   Earth MOID: 0.1886   Ma: 0.0577
M   6.126709515 +/- 17              (J2000 ecliptic)             AutoNEOCP
n   0.311479247 +/- 0.262           Peri.  151.617545 +/- 60
a   2.155344215 +/- 1.21            Node   161.122097 +/- 34
e   0.44701494 +/- 0.25             Incl.    7.545505 +/- 4.8
P   3.16428                H 25.19  G  0.15   U 11.8  SR
q 1.191873147 +/- 0.192    Q 3.118815284 +/- 53.5
From 6 observations 2026 Aug. 23 (2.5 hr); mean residual 0".15
Residuals in arcseconds: 
260823 V00  .02+  .03-    260823 V00  .17-  .15+    260823 291  .31+  .04-    
260823 V00  .00   .17-    260823 V00  .10+  .08+    260823 291  .26-  .01+    

Ephemerides (geocentric):
Date (UTC) HH   RA             Dec           delta  r     elong  mag " sig PA
---- --------  ------------   ------------  ------ ------ -----  --- --------
2026 08 26 01  22 25 42.919   -03 14 16.99  .20635 1.2155 172.4 22.7 1850  65
2026 08 26 02  22 25 48.865   -03 15 38.11  .20643 1.2156 172.4 22.7 1909  65
2026 08 26 03  22 25 54.806   -03 16 59.20  .20651 1.2156 172.5 22.7 1969  65
2026 08 26 04  22 26 00.742   -03 18 20.24  .20659 1.2157 172.5 22.7 2030  64
2026 08 26 05  22 26 06.674   -03 19 41.25  .20667 1.2158 172.5 22.7 2093  64
2026 08 26 06  22 26 12.600   -03 21 02.21  .20675 1.2159 172.6 22.7 2158  64
2026 08 26 07  22 26 18.523   -03 22 23.14  .20683 1.2160 172.6 22.7 2224  64
2026 08 26 08  22 26 24.440   -03 23 44.03  .20691 1.2161 172.7 22.7 2291  63
2026 08 26 09  22 26 30.352   -03 25 04.88  .20699 1.2162 172.7 22.7 2361  63
2026 08 26 10  22 26 36.260   -03 26 25.69  .20707 1.2162 172.7 22.7 2432  63
2026 08 26 11  22 26 42.163   -03 27 46.46  .20715 1.2163 172.8 22.7 2505  63
2026 08 26 12  22 26 48.062   -03 29 07.19  .20724 1.2164 172.8 22.7 2579  63
2026 08 26 13  22 26 53.955   -03 30 27.87  .20732 1.2165 172.9 22.7 2656  63
2026 08 26 14  22 26 59.844   -03 31 48.52  .20740 1.2166 172.9 22.7 2734  62
2026 08 26 15  22 27 05.728   -03 33 09.13  .20748 1.2167 172.9 22.7 2814  62
2026 08 26 16  22 27 11.607   -03 34 29.69  .20756 1.2168 173.0 22.7 2897  62
2026 08 26 17  22 27 17.482   -03 35 50.21  .20765 1.2169 173.0 22.7 2981  62
2026 08 26 18  22 27 23.352   -03 37 10.69  .20773 1.2169 173.0 22.7 3067  62
2026 08 26 19  22 27 29.217   -03 38 31.13  .20781 1.2170 173.1 22.7 3156  62
2026 08 26 20  22 27 35.077   -03 39 51.52  .20790 1.2171 173.1 22.7 3247  61
2026 08 26 21  22 27 40.932   -03 41 11.88  .20798 1.2172 173.2 22.7 3340  61
2026 08 26 22  22 27 46.783   -03 42 32.19  .20806 1.2173 173.2 22.7 3435  61
2026 08 26 23  22 27 52.629   -03 43 52.45  .20815 1.2174 173.2 22.7 3533  61
2026 08 27 00  22 27 58.470   -03 45 12.67  .20823 1.2175 173.3 22.7 3634  61
2026 08 27 01  22 28 04.306   -03 46 32.85  .20832 1.2176 173.3 22.7 3737  61
2026 08 27 02  22 28 10.137   -03 47 52.99  .20840 1.2176 173.4 22.7 3843  61
2026 08 27 03  22 28 15.964   -03 49 13.08  .20849 1.2177 173.4 22.7 3951  61
2026 08 27 04  22 28 21.786   -03 50 33.13  .20857 1.2178 173.4 22.7 4063  60
2026 08 27 05  22 28 27.603   -03 51 53.13  .20866 1.2179 173.5 22.7 4177  60
2026 08 27 06  22 28 33.415   -03 53 13.08  .20874 1.2180 173.5 22.7 4295  60
2026 08 27 07  22 28 39.222   -03 54 32.99  .20883 1.2181 173.6 22.7 4416  60
2026 08 27 08  22 28 45.025   -03 55 52.86  .20891 1.2182 173.6 22.7 4540  60
2026 08 27 09  22 28 50.822   -03 57 12.68  .20900 1.2183 173.6 22.7 4668  60
2026 08 27 10  22 28 56.615   -03 58 32.45  .20909 1.2184 173.7 22.7 4800  60
2026 08 27 11  22 29 02.403   -03 59 52.18  .20917 1.2185 173.7 22.7 4935  60
2026 08 27 12  22 29 08.186   -04 01 11.86  .20926 1.2185 173.8 22.7 5074  60
2026 08 27 13  22 29 13.965   -04 02 31.50  .20935 1.2186 173.8 22.7 5218  60
2026 08 27 14  22 29 19.738   -04 03 51.09  .20943 1.2187 173.8 22.7 5366  59
2026 08 27 15  22 29 25.507   -04 05 10.63  .20952 1.2188 173.9 22.6 5518  59
2026 08 27 16  22 29 31.271   -04 06 30.12  .20961 1.2189 173.9 22.6 5675  59
2026 08 27 17  22 29 37.030   -04 07 49.57  .20970 1.2190 173.9 22.6 5837  59
2026 08 27 18  22 29 42.784   -04 09 08.96  .20979 1.2191 174.0 22.6 6004  59
2026 08 27 19  22 29 48.533   -04 10 28.31  .20987 1.2192 174.0 22.6 6177  59
2026 08 27 20  22 29 54.278   -04 11 47.62  .20996 1.2193 174.1 22.6 6355  59
2026 08 27 21  22 30 00.017   -04 13 06.87  .21005 1.2194 174.1 22.6 6540  59
2026 08 27 22  22 30 05.752   -04 14 26.07  .21014 1.2195 174.1 22.6 6731  59
2026 08 27 23  22 30 11.482   -04 15 45.23  .21023 1.2195 174.2 22.6 6928  59
2026 08 28 00  22 30 17.207   -04 17 04.33  .21032 1.2196 174.2 22.6 7133  59